Stations météo

Publicité
Hurguada, Egypte (62463): Température de l'air & dewpoint: 18.05.2017 11:00:00 - 24.05.2017 11:00:00 (EET)Hurguada, Egypte (62463): Vitesse du vent: 18.05.2017 11:00:00 - 24.05.2017 11:00:00 (EET)Hurguada, Egypte (62463): Direction du vent: 18.05.2017 11:00:00 - 24.05.2017 11:00:00 (EET)Hurguada, Egypte (62463): reduced air pressure: 18.05.2017 11:00:00 - 24.05.2017 11:00:00 (EET)Hurguada, Egypte (62463): visibility: 18.05.2017 11:00:00 - 24.05.2017 11:00:00 (EET)
Date & Time tt [°C] td [°C] ff [km/h] ff [knt] dd ppp [hPa] vv [km]
24.05.2017 11:00:00 - - - - - - -
24.05.2017 10:00:00 - - - - - - -
24.05.2017 09:00:00 - - - - - - -
24.05.2017 08:00:00 27,0 9,5 28 15 NNW 1015,4 10
24.05.2017 07:00:00 - - - - - - -
24.05.2017 06:00:00 - - - - - - -
24.05.2017 05:00:00 22,6 11,3 22 12 NW 1014,0 10
24.05.2017 04:00:00 - - - - - - -
24.05.2017 03:00:00 - - - - - - -
24.05.2017 02:00:00 24,4 7,1 29 16 NW 1012,9 10
24.05.2017 01:00:00 - - - - - - -
24.05.2017 00:00:00 - - - - - - -
23.05.2017 23:00:00 26,7 5,1 34 18 WNW 1013,5 10
23.05.2017 22:00:00 - - - - - - -
23.05.2017 21:00:00 - - - - - - -
23.05.2017 20:00:00 29,0 5,1 28 15 NNW 1012,5 10
23.05.2017 19:00:00 - - - - - - -
23.05.2017 18:00:00 - - - - - - -
23.05.2017 17:00:00 32,2 8,8 22 12 NNW 1010,3 10
23.05.2017 16:00:00 - - - - - - -
23.05.2017 15:00:00 - - - - - - -
23.05.2017 14:00:00 32,4 10,6 37 20 N 1010,6 7
23.05.2017 13:00:00 - - - - - - -
23.05.2017 12:00:00 - - - - - - -
23.05.2017 11:00:00 31,1 8,7 37 20 N 1012,0 7
23.05.2017 10:00:00 - - - - - - -
23.05.2017 09:00:00 - - - - - - -
23.05.2017 08:00:00 27,5 12,7 24 13 NNW 1011,6 7
23.05.2017 07:00:00 - - - - - - -
23.05.2017 06:00:00 - - - - - - -
23.05.2017 05:00:00 24,6 14,7 31 17 NNW 1009,7 7
23.05.2017 04:00:00 - - - - - - -
23.05.2017 03:00:00 - - - - - - -
23.05.2017 02:00:00 27,6 -2,3 11 6 WNW 1008,2 10
23.05.2017 01:00:00 - - - - - - -
23.05.2017 00:00:00 - - - - - - -
22.05.2017 23:00:00 27,5 -1,5 13 7 WNW 1008,9 10
22.05.2017 22:00:00 - - - - - - -
22.05.2017 21:00:00 - - - - - - -
22.05.2017 20:00:00 27,8 8,6 4 2 SSE 1009,2 10
22.05.2017 19:00:00 - - - - - - -
22.05.2017 18:00:00 - - - - - - -
22.05.2017 17:00:00 33,5 0,2 5 3 E 1008,2 10
22.05.2017 16:00:00 - - - - - - -
22.05.2017 15:00:00 - - - - - - -
22.05.2017 14:00:00 33,4 0,1 13 7 NE 1008,6 10
22.05.2017 13:00:00 - - - - - - -
22.05.2017 12:00:00 - - - - - - -
22.05.2017 11:00:00 30,8 6,6 18 10 NNE 1010,8 10
22.05.2017 10:00:00 - - - - - - -
22.05.2017 09:00:00 - - - - - - -
22.05.2017 08:00:00 28,4 4,0 21 11 NW 1011,5 10
22.05.2017 07:00:00 - - - - - - -
22.05.2017 06:00:00 - - - - - - -
22.05.2017 05:00:00 23,2 3,7 16 9 WNW 1010,6 10
22.05.2017 04:00:00 - - - - - - -
22.05.2017 03:00:00 - - - - - - -
22.05.2017 02:00:00 24,4 1,3 18 10 NW 1010,9 10
22.05.2017 01:00:00 - - - - - - -
22.05.2017 00:00:00 - - - - - - -
21.05.2017 23:00:00 25,4 2,1 18 10 WNW 1012,0 10
21.05.2017 22:00:00 - - - - - - -
21.05.2017 21:00:00 - - - - - - -
21.05.2017 20:00:00 27,0 9,8 21 11 N 1011,4 10
21.05.2017 19:00:00 - - - - - - -
21.05.2017 18:00:00 - - - - - - -
21.05.2017 17:00:00 31,9 2,0 39 21 N 1010,7 10
21.05.2017 16:00:00 - - - - - - -
21.05.2017 15:00:00 - - - - - - -
21.05.2017 14:00:00 31,5 1,2 34 18 WNW 1012,1 10
21.05.2017 13:00:00 - - - - - - -
21.05.2017 12:00:00 - - - - - - -
21.05.2017 11:00:00 31,0 -0,6 34 18 N 1014,2 10
21.05.2017 10:00:00 - - - - - - -
21.05.2017 09:00:00 - - - - - - -
21.05.2017 08:00:00 25,2 3,1 46 25 NNW 1014,6 10
21.05.2017 07:00:00 - - - - - - -
21.05.2017 06:00:00 - - - - - - -
21.05.2017 05:00:00 21,7 5,1 34 18 NW 1013,0 10
21.05.2017 04:00:00 - - - - - - -
21.05.2017 03:00:00 - - - - - - -
21.05.2017 02:00:00 23,9 8,3 22 12 WNW 1013,2 10
21.05.2017 01:00:00 - - - - - - -
21.05.2017 00:00:00 - - - - - - -
20.05.2017 23:00:00 26,4 6,5 18 10 WNW 1013,9 10
20.05.2017 22:00:00 - - - - - - -
20.05.2017 21:00:00 - - - - - - -
20.05.2017 20:00:00 28,4 7,7 34 18 NNW 1012,4 10
20.05.2017 19:00:00 - - - - - - -
20.05.2017 18:00:00 - - - - - - -
20.05.2017 17:00:00 30,0 10,9 54 29 N 1011,0 8
20.05.2017 16:00:00 - - - - - - -
20.05.2017 15:00:00 - - - - - - -
20.05.2017 14:00:00 31,1 10,0 24 13 N 1011,4 10
20.05.2017 13:00:00 - - - - - - -
20.05.2017 12:00:00 - - - - - - -
20.05.2017 11:00:00 29,6 10,8 35 19 N 1013,5 10
20.05.2017 10:00:00 - - - - - - -
20.05.2017 09:00:00 - - - - - - -
20.05.2017 08:00:00 28,0 10,3 34 18 NNW 1014,0 10
20.05.2017 07:00:00 - - - - - - -
20.05.2017 06:00:00 - - - - - - -
20.05.2017 05:00:00 23,5 13,1 26 14 WNW 1012,9 10
20.05.2017 04:00:00 - - - - - - -
20.05.2017 03:00:00 - - - - - - -
20.05.2017 02:00:00 27,0 9,8 22 12 N 1011,9 10
20.05.2017 01:00:00 - - - - - - -
20.05.2017 00:00:00 - - - - - - -
19.05.2017 23:00:00 28,6 10,7 29 16 N 1012,1 10
19.05.2017 22:00:00 - - - - - - -
19.05.2017 21:00:00 - - - - - - -
19.05.2017 20:00:00 30,3 10,3 35 19 N 1009,7 8
19.05.2017 19:00:00 - - - - - - -
19.05.2017 18:00:00 - - - - - - -
19.05.2017 17:00:00 32,9 12,6 24 13 NNE 1006,8 8
19.05.2017 16:00:00 - - - - - - -
19.05.2017 15:00:00 - - - - - - -
19.05.2017 14:00:00 34,0 10,6 35 19 NNE 1017,0 6
19.05.2017 13:00:00 - - - - - - -
19.05.2017 12:00:00 - - - - - - -
19.05.2017 11:00:00 33,7 11,6 34 18 N 1007,9 4,0
19.05.2017 10:00:00 - - - - - - -
19.05.2017 09:00:00 - - - - - - -
19.05.2017 08:00:00 32,0 11,6 22 12 N 1007,7 10
19.05.2017 07:00:00 - - - - - - -
19.05.2017 06:00:00 - - - - - - -
19.05.2017 05:00:00 26,0 18,4 5 3 WNW 1006,7 10
19.05.2017 04:00:00 - - - - - - -
19.05.2017 03:00:00 - - - - - - -
19.05.2017 02:00:00 27,7 20,6 8 4 NNE 1005,4 10
19.05.2017 01:00:00 - - - - - - -
19.05.2017 00:00:00 - - - - - - -
18.05.2017 23:00:00 29,7 17,2 13 7 ESE 1005,4 10
18.05.2017 22:00:00 - - - - - - -
18.05.2017 21:00:00 - - - - - - -
18.05.2017 20:00:00 34,0 10,4 11 6 SSW 1005,5 10
18.05.2017 19:00:00 - - - - - - -
18.05.2017 18:00:00 - - - - - - -
18.05.2017 17:00:00 - - - - - - -
18.05.2017 16:00:00 - - - - - - -
18.05.2017 15:00:00 - - - - - - -
18.05.2017 14:00:00 34,7 12,4 8 4 E 1006,4 10
18.05.2017 13:00:00 - - - - - - -
18.05.2017 12:00:00 - - - - - - -
18.05.2017 11:00:00 33,0 11,5 9 5 ESE 1007,9 10

tt = Température de l'air
td = dewpoint
ff = Vitesse du vent
dd = Direction du vent
ppp = reduced air pressure
vv = visibility

stations d'obs. à proximité